Cold Bay, AK

5:11 PM AKDT on April 20, 2018 (GMT -0800)
Cold Bay

Weather History for PACD - October, 2012

Change the Weather History Date:

Friday, October 12, 2012

  Actual Average Record
Temperature  
Mean Temperature 48 °F 41 °F  
Max Temperature 50 °F 47 °F 56 °F (2016)
Min Temperature 45 °F 36 °F 24 °F (2000)
Degree Days  
Heating Degree Days 17 24  
Month to date heating degree days 194 267  
Since 1 July heating degree days 1711 1613  
Cooling Degree Days 0 0  
Month to date cooling degree days 0 0  
Year to date cooling degree days 0 0  
Moisture  
Dew Point 40 °F    
Average Humidity 0    
Maximum Humidity 0    
Minimum Humidity 0    
Precipitation  
Precipitation 0.02 in 0.16 in 0.51 in (2005)
Month to date precipitation 4.31 1.87  
Year to date precipitation 35.47 29.34  
Snow  
Snow 0.00 in 0.00 in - ()
Month to date snowfall 0.0 0.3  
Since 1 July snowfall T 0.3  
Since 1 September snowfall 0.0 0.3  
Snow Depth 0.00 in    
Sea Level Pressure  
Sea Level Pressure 29.15 in    
Wind  
Wind Speed 21 mph (NNE)    
Max Wind Speed 36 mph    
Max Gust Speed 47 mph    
Visibility 10 miles    
Events Rain    
T = Trace of Precipitation, MM = Missing Value Source: NWS Daily Summary

Daily Weather History Graph

Daily Weather History Graph

Search for Another Location

Airport or City:

Astronomy

Oct. 12, 2012 Rise Set
Actual Time 9:16 AM AKDT 7:56 PM AKDT
Civil Twilight 8:39 AM AKDT 8:33 PM AKDT
Nautical Twilight 7:57 AM AKDT 9:15 PM AKDT
Astronomical Twilight 7:14 AM AKDT 9:58 PM AKDT
Moon 5:47 AM AKDT (10/12) 6:32 PM AKDT (10/12)
Length of Visible Light 11h 54m
Length of Day
10h 40m
Waning Crescent, 10% of the Moon is Illuminated
Oct 12
Waning Crescent
Oct 15
New
Oct 21
First Quarter
Oct 29
Full
Nov 6
Last Quarter

Hourly Weather History & Observations

Time (AKDT) Temp. Windchill Dew Point Humidity Pressure Visibility Wind Dir Wind Speed Gust Speed Precip Events Conditions
12:53 AM 50.0 °F - 41.0 °F 71% 29.17 in 10.0 mi East 27.6 mph 38.0 mph N/A   Overcast
1:53 AM 46.0 °F 37.6 °F 41.0 °F 83% 29.18 in 10.0 mi ENE 24.2 mph 43.7 mph N/A   Overcast
2:53 AM 46.0 °F 38.5 °F 42.1 °F 86% 29.18 in 10.0 mi ESE 19.6 mph 34.5 mph 0.00 in Rain Light Rain
3:53 AM 48.9 °F - 41.0 °F 74% 29.17 in 10.0 mi East 25.3 mph 33.4 mph 0.00 in   Overcast
4:53 AM 48.9 °F - 41.0 °F 74% 29.15 in 10.0 mi East 25.3 mph 36.8 mph N/A   Overcast
5:53 AM 48.0 °F - 42.1 °F 80% 29.13 in 10.0 mi NE 16.1 mph 23.0 mph 0.00 in Rain Light Rain
6:53 AM 46.9 °F - 42.1 °F 83% 29.14 in 10.0 mi North 8.1 mph - 0.01 in   Overcast
7:53 AM 46.0 °F 41.4 °F 43.0 °F 89% 29.15 in 10.0 mi NNE 9.2 mph - 0.00 in Rain Light Rain
8:53 AM 46.0 °F 40.6 °F 43.0 °F 89% 29.14 in 10.0 mi NNE 11.5 mph - 0.01 in Rain Light Rain
9:53 AM 46.0 °F 39.3 °F 43.0 °F 89% 29.14 in 10.0 mi NNE 16.1 mph - 0.00 in Rain Light Rain
10:53 AM 46.0 °F 39.0 °F 44.1 °F 93% 29.14 in 10.0 mi NNE 17.3 mph - 0.00 in Rain Light Rain
11:53 AM 46.9 °F - 44.1 °F 90% 29.14 in 10.0 mi NNE 19.6 mph - 0.00 in   Overcast
12:53 PM 46.9 °F - 43.0 °F 86% 29.14 in 10.0 mi NNE 17.3 mph - N/A   Overcast
1:53 PM 46.9 °F - 44.1 °F 90% 29.14 in 10.0 mi NNE 23.0 mph 28.8 mph N/A   Overcast
2:53 PM 48.0 °F - 43.0 °F 83% 29.13 in 10.0 mi North 20.7 mph 31.1 mph N/A   Mostly Cloudy
3:40 PM 46.4 °F 38.5 °F 42.8 °F 87% 29.12 in 10.0 mi North 21.9 mph 31.1 mph N/A   Overcast
3:53 PM 46.9 °F - 43.0 °F 86% 29.12 in 10.0 mi North 21.9 mph 33.4 mph N/A   Overcast
4:00 PM 46.4 °F 38.7 °F 42.8 °F 87% 29.13 in 10.0 mi North 20.7 mph 32.2 mph N/A   Overcast
4:14 PM 46.4 °F 38.5 °F 42.8 °F 87% 29.13 in 10.0 mi North 21.9 mph 29.9 mph N/A   Overcast
4:53 PM 46.9 °F - 42.1 °F 83% 29.12 in 10.0 mi North 21.9 mph 28.8 mph N/A   Overcast
5:53 PM 45.0 °F 36.6 °F 41.0 °F 86% 29.13 in 10.0 mi North 21.9 mph 28.8 mph N/A   Overcast
6:17 PM 44.6 °F 36.9 °F 41.0 °F 87% 29.14 in 10.0 mi North 18.4 mph 29.9 mph N/A   Overcast
6:53 PM 44.1 °F 35.9 °F 39.0 °F 82% 29.15 in 10.0 mi North 19.6 mph 28.8 mph N/A   Overcast
7:07 PM 44.6 °F 36.1 °F 39.2 °F 81% 29.14 in 10.0 mi North 21.9 mph 27.6 mph N/A   Overcast
7:51 PM 42.8 °F 34.3 °F 37.4 °F 81% 29.16 in 10.0 mi North 19.6 mph 31.1 mph N/A   Overcast
7:53 PM 43.0 °F 34.8 °F 37.9 °F 82% 29.16 in 10.0 mi North 18.4 mph 25.3 mph N/A   Overcast
8:53 PM 42.8 °F 35.8 °F 33.8 °F 70% 29.17 in 10.0 mi North 13.8 mph 25.3 mph N/A   Overcast
9:03 PM 41.0 °F 33.1 °F 33.8 °F 76% 29.17 in 10.0 mi North 15.0 mph - N/A   Mostly Cloudy
9:53 PM 42.1 °F 34.9 °F 35.1 °F 76% 29.18 in 10.0 mi North 13.8 mph - N/A   Mostly Cloudy
10:18 PM 42.8 °F 34.5 °F 35.6 °F 76% 29.18 in 10.0 mi North 18.4 mph 25.3 mph N/A   Mostly Cloudy
10:46 PM 42.8 °F 34.3 °F 35.6 °F 76% 29.19 in 10.0 mi North 19.6 mph 25.3 mph N/A   Mostly Cloudy
10:53 PM 42.1 °F 33.9 °F 36.0 °F 79% 29.20 in 10.0 mi North 17.3 mph 25.3 mph N/A   Mostly Cloudy
11:29 PM 42.8 °F 34.8 °F 35.6 °F 76% 29.20 in 10.0 mi North 17.3 mph - N/A   Mostly Cloudy
11:53 PM 42.1 °F 33.6 °F 35.1 °F 76% 29.20 in 10.0 mi North 18.4 mph - N/A   Mostly Cloudy